Weather History for LDSP - October, 2012

Change the Weather History Date:

Thursday, October 25, 2012

  Actual Average Record
Temperature  
Mean Temperature 60 °F -  
Max Temperature 70 °F - - ()
Min Temperature 51 °F - - ()
Degree Days  
Heating Degree Days 4    
Growing Degree Days 10 (Base 50)    
Moisture  
Dew Point 54 °F    
Average Humidity 80    
Maximum Humidity 94    
Minimum Humidity 61    
Precipitation  
Precipitation 0.00 in - - ()
Sea Level Pressure  
Sea Level Pressure 29.96 in    
Wind  
Wind Speed 2 mph ()    
Max Wind Speed 6 mph    
Max Gust Speed -    
Visibility 8.3 miles    
Events      
T = Trace of Precipitation, MM = Missing Value Source: Averaged Metar Reports

Daily Weather History Graph

Daily Weather History Graph

Search for Another Location

Airport or City:

Trip Planner

Search our weather history database for the weather conditions in past years. The results will help you decide how hot, cold, wet, or windy it might be!

Date:

Astronomy

Oct. 25, 2012 Rise Set
Actual Time 7:21 AM CEST 5:55 PM CEST
Civil Twilight 6:52 AM CEST 6:24 PM CEST
Nautical Twilight 6:18 AM CEST 6:58 PM CEST
Astronomical Twilight 5:45 AM CEST 7:31 PM CEST
Moon 3:38 PM CEST (10/25) 2:53 AM CEST (10/25)
Length of Visible Light 11h 32m
Length of Day
10h 33m
Waxing Gibbous, 82% of the Moon is Illuminated
Oct 25
Waxing Gibbous
Oct 29
Full
Nov 7
Last Quarter
Nov 13
New
Nov 20
First Quarter

Hourly Weather History & Observations

Time (CEST) Temp. Dew Point Humidity Pressure Visibility Wind Dir Wind Speed Gust Speed Precip Events Conditions
12:00 AM 55.4 °F 50.0 °F 82% 30.01 in - Variable 2.3 mph - N/A   Clear
12:30 AM 55.4 °F 50.0 °F 82% 29.98 in - Variable 3.5 mph - N/A   Clear
1:00 AM 55.4 °F 50.0 °F 82% 29.98 in - Variable 3.5 mph - N/A   Clear
1:30 AM 55.4 °F 50.0 °F 82% 29.98 in - Variable 2.3 mph - N/A   Clear
2:00 AM 55.4 °F 50.0 °F 82% 29.98 in - Variable 3.5 mph - N/A   Clear
2:30 AM 53.6 °F 50.0 °F 88% 29.98 in - Variable 2.3 mph - N/A   Clear
3:00 AM 53.6 °F 50.0 °F 88% 29.98 in - Variable 3.5 mph - N/A   Clear
3:30 AM 53.6 °F 50.0 °F 88% 29.98 in - Variable 2.3 mph - N/A   Clear
4:00 AM 51.8 °F 48.2 °F 88% 29.98 in - Variable 1.2 mph - N/A   Clear
4:30 AM 51.8 °F 50.0 °F 94% 29.98 in - Variable 3.5 mph - N/A   Clear
5:00 AM 53 °F 50 °F 86% 29.99 in 12 mi Calm Calm - -  
5:00 AM 53.6 °F 50.0 °F 88% 29.98 in - Calm Calm - N/A   Clear
5:30 AM 53.6 °F 50.0 °F 88% 29.98 in - Calm Calm - N/A   Clear
6:00 AM 53.6 °F 50.0 °F 88% 29.98 in - Calm Calm - N/A   Clear
6:30 AM 51.8 °F 50.0 °F 94% 29.98 in - Calm Calm - N/A   Clear
7:00 AM 51.8 °F 50.0 °F 94% 29.98 in - Variable 3.5 mph - N/A   Clear
7:30 AM 51.8 °F 48.2 °F 88% 29.98 in - NNE 4.6 mph - N/A   Clear
8:00 AM 51 °F 49 °F 89% 29.98 in 7 mi North 2.2 mph - -  
8:00 AM 51.8 °F 48.2 °F 88% 29.98 in - Variable 3.5 mph - N/A   Clear
8:30 AM 53.6 °F 50.0 °F 88% 29.98 in - Calm Calm - N/A   Clear
9:00 AM 57.2 °F 53.6 °F 88% 29.98 in - Calm Calm - N/A   Clear
9:30 AM 59.0 °F 57.2 °F 94% 29.98 in - Calm Calm - N/A   Clear
10:00 AM 62.6 °F 57.2 °F 82% 29.98 in - Calm Calm - N/A   Clear
10:30 AM 64.4 °F 53.6 °F 68% 29.98 in - Variable 2.3 mph - N/A   Clear
11:00 AM 66 °F 56 °F 61% 29.99 in 12 mi East 2.2 mph - -  
11:00 AM 66.2 °F 55.4 °F 68% 29.98 in - Variable 2.3 mph - N/A   Clear
11:30 AM 68.0 °F 55.4 °F 64% 29.98 in - Variable 1.2 mph - N/A   Clear
12:00 PM 68.0 °F 55.4 °F 64% 29.98 in - Variable 3.5 mph - N/A   Clear
12:30 PM 68.0 °F 55.4 °F 64% 29.98 in - Variable 3.5 mph - N/A   Clear
1:00 PM 68.0 °F 57.2 °F 68% 29.95 in 6.2 mi Variable 3.5 mph - N/A   Partly Cloudy
1:30 PM 69.8 °F 57.2 °F 64% 29.95 in 6.2 mi ESE 4.6 mph - N/A   Partly Cloudy
2:00 PM 69 °F 58 °F 61% 29.95 in 12 mi South 2.2 mph - -   Scattered Clouds
2:00 PM 69.8 °F 59.0 °F 68% 29.95 in 6.2 mi Variable 2.3 mph - N/A   Partly Cloudy
2:30 PM 69.8 °F 59.0 °F 68% 29.95 in 6.2 mi Variable 2.3 mph - N/A   Partly Cloudy
3:00 PM 69.8 °F 59.0 °F 68% 29.92 in 6.2 mi Variable 3.5 mph - N/A   Partly Cloudy
3:30 PM 69.8 °F 60.8 °F 73% 29.92 in 6.2 mi Variable 2.3 mph - N/A   Partly Cloudy
4:00 PM 69.8 °F 60.8 °F 73% 29.92 in 6.2 mi SW 5.8 mph - N/A   Partly Cloudy
4:30 PM 69.8 °F 60.8 °F 73% 29.92 in - SW 4.6 mph - N/A   Clear
5:00 PM 69 °F 60 °F 65% 29.92 in 12 mi SW 4.5 mph - -  
5:00 PM 69.8 °F 60.8 °F 73% 29.92 in - Variable 3.5 mph - N/A   Clear
5:30 PM 68.0 °F 59.0 °F 73% 29.92 in - Variable 3.5 mph - N/A   Clear
6:00 PM 66.2 °F 57.2 °F 73% 29.92 in - Variable 2.3 mph - N/A   Clear
6:30 PM 62.6 °F 57.2 °F 82% 29.92 in - Variable 2.3 mph - N/A   Clear
7:00 PM 60.8 °F 55.4 °F 82% 29.92 in - Variable 3.5 mph - N/A   Clear
7:30 PM 59.0 °F 55.4 °F 88% 29.92 in - Variable 2.3 mph - N/A   Clear
8:00 PM 58 °F 54 °F 83% 29.93 in 9 mi NW 2.2 mph - -  
8:00 PM 59.0 °F 53.6 °F 82% 29.92 in - Variable 2.3 mph - N/A   Clear
8:30 PM 59.0 °F 55.4 °F 88% 29.92 in - Variable 2.3 mph - N/A   Clear
9:00 PM 59.0 °F 53.6 °F 82% 29.92 in - Calm Calm - N/A   Clear
9:30 PM 57.2 °F 53.6 °F 88% 29.92 in - Calm Calm - N/A   Clear
10:00 PM 57.2 °F 53.6 °F 88% 29.92 in - Calm Calm - N/A   Clear
10:30 PM 57.2 °F 51.8 °F 82% 29.92 in - Variable 1.2 mph - N/A   Clear
11:00 PM 56 °F 53 °F 84% 29.94 in 9 mi Calm Calm - -  
11:00 PM 55.4 °F 51.8 °F 88% 29.92 in - Calm Calm - N/A   Clear
11:30 PM 55.4 °F 51.8 °F 88% 29.92 in - Calm Calm - N/A   Clear